Location: Tampereen Ursa Observatory
(61.5120°N, 23.7930°E)
Time: 19:51:33
(UTC+03:00)

ISS - Visible Passes

Search period start: 13 July 2025 00:00
Search period end: 23 July 2025 00:00
Orbit: 413 x 417 km, 51.6° (Epoch: 13 July)

Date Brightness Start Highest point End Pass type
(mag) Time Alt. Az. Time Alt. Az. Time Alt. Az.
13 Jul -1.7 01:27:10 10° SW 01:28:33 12° SSW 01:29:56 10° S visible
14 Jul -1.8 00:38:10 10° SW 00:39:57 14° SSW 00:41:44 10° SSE visible
16 Jul -1.5 00:37:41 10° SW 00:38:23 10° SSW 00:39:05 10° S visible
